CW2550 Weather Reports


Display with metric or nautical units.
time (UTC)temp
F
wind
direction
speed
MPH
gust
MPH
rain 1hr
in
rain 24hr
in
rain mn
in
humidity
%
barometer
mb
20260502151607 52 254 5.0 10.0 0.00 0.00 0.00 44 1017.5
20260502123042 37 231 4.0 8.0 0.00 0.00 0.00 73 1017.8
20260502121542 36 209 3.0 7.0 0.00 0.00 0.00 75 1017.7
20260502114537 34 213 3.0 5.0 0.00 0.00 0.00 77 1017.6
20260502113045 33 208 3.0 5.0 0.00 0.00 0.00 78 1017.4
20260502111541 33 204 2.0 5.0 0.00 0.00 0.00 77 1017.4
20260502110046 33 203 2.0 4.0 0.00 0.00 0.00 77 1017.4
20260502104541 34 198 2.0 4.0 0.00 0.00 0.00 76 1017.5
20260502103042 34 192 2.0 3.0 0.00 0.00 0.00 77 1017.5
20260502101556 34 197 2.0 4.0 0.00 0.00 0.00 76 1017.5
20260502070057 36 198 2.0 4.0 0.00 0.00 0.00 68 1017.7
20260502064537 36 199 2.0 4.0 0.00 0.00 0.00 68 1017.8
20260502063037 36 198 2.0 3.0 0.00 0.00 0.00 67 1017.9
20260502061543 37 200 2.0 4.0 0.00 0.00 0.00 65 1017.9
20260502060045 37 205 2.0 4.0 0.00 0.00 0.00 65 1017.9
20260502054557 37 275 2.0 3.0 0.00 0.00 0.00 64 1018.0
20260502053043 37 279 1.0 3.0 0.00 0.00 0.00 63 1018.0
20260502051537 38 280 1.0 3.0 0.00 0.00 0.00 62 1018.0
20260502050049 38 280 2.0 3.0 0.00 0.00 0.00 61 1017.9
20260502044541 39 281 1.0 3.0 0.00 0.00 0.00 60 1017.7
20260502043051 39 0 0.0 0.0 0.00 0.00 0.00 59 1017.8
20260502041609 39 0 0.0 0.0 0.00 0.00 0.00 58 1017.7
20260502040053 40 0 0.0 0.0 0.00 0.00 0.00 57 1017.8
20260502034547 41 0 0.0 0.0 0.00 0.00 0.00 55 1017.9
20260502033042 42 0 0.0 0.0 0.00 0.00 0.00 53 1017.9
20260502031543 43 0 0.0 0.0 0.00 0.00 0.00 49 1017.9
20260502030108 44 0 0.0 0.0 0.00 0.00 0.00 47 1017.9
20260502024551 44 0 0.0 0.0 0.00 0.00 0.00 46 1017.8
20260502023100 45 0 0.0 0.0 0.00 0.00 0.00 47 1017.8
20260502021538 46 0 0.0 0.0 0.00 0.00 0.00 45 1017.7
20260502020041 47 0 0.0 1.0 0.00 0.00 0.00 44 1017.6
20260502014541 48 0 0.0 1.0 0.00 0.00 0.00 42 1017.3
20260502013044 49 0 0.0 5.0 0.00 0.00 0.00 40 1017.3
20260502011557 49 319 2.0 8.0 0.00 0.00 0.00 38 1017.2
20260502010044 49 325 2.0 5.0 0.00 0.00 0.00 40 1017.2
20260502004542 49 324 0.0 6.0 0.00 0.00 0.00 38 1017.1
20260502003043 49 316 2.0 8.0 0.00 0.00 0.00 38 1017.0
20260502001548 49 313 3.0 10.0 0.00 0.00 0.00 38 1017.0
20260502000053 49 342 3.0 9.0 0.00 0.00 0.00 38 1017.0
20260501234537 50 5 4.0 7.0 0.00 0.00 0.00 37 1016.9
20260501233101 50 352 4.0 6.0 0.00 0.00 0.00 36 1017.0
20260501231552 50 347 5.0 9.0 0.00 0.00 0.00 36 1017.1
20260501230110 49 309 3.0 8.0 0.00 0.00 0.00 36 1017.0
20260501224556 50 319 3.0 11.0 0.00 0.00 0.00 35 1017.0
20260501223051 51 280 8.0 17.0 0.00 0.00 0.00 36 1016.9
20260501221542 51 327 5.0 12.0 0.00 0.00 0.00 35 1017.0
20260501220042 50 9 5.0 12.0 0.00 0.00 0.00 36 1017.0
20260501214543 50 314 4.0 12.0 0.00 0.00 0.00 36 1017.0
20260501213050 50 314 2.0 8.0 0.00 0.00 0.00 37 1016.9
20260501211539 49 351 4.0 9.0 0.00 0.00 0.00 37 1017.1
20260501210046 49 352 6.0 11.0 0.00 0.00 0.00 37 1017.1
20260501204547 51 340 4.0 9.0 0.00 0.00 0.00 37 1017.1
20260501203047 50 348 5.0 10.0 0.00 0.00 0.00 37 1017.3
20260501201543 49 352 6.0 10.0 0.00 0.00 0.00 37 1017.3
20260501200049 48 9 6.0 12.0 0.00 0.00 0.00 37 1017.4
20260501194541 49 11 5.0 12.0 0.00 0.00 0.00 38 1017.3
20260501193043 48 5 8.0 12.0 0.00 0.00 0.00 41 1017.3
20260501191548 47 308 5.0 9.0 0.00 0.00 0.00 40 1017.4
20260501190043 48 350 6.0 11.0 0.00 0.00 0.00 40 1017.5
20260501184543 48 11 5.0 14.0 0.00 0.00 0.00 40 1017.4
20260501183048 47 344 5.0 11.0 0.00 0.00 0.00 42 1017.5
20260501181543 47 5 7.0 10.0 0.00 0.00 0.00 42 1017.4
20260501180050 46 321 3.0 14.0 0.00 0.00 0.00 41 1017.5
20260501174549 46 329 6.0 12.0 0.00 0.00 0.00 44 1017.6
20260501173100 46 317 5.0 10.0 0.00 0.00 0.00 44 1017.7
20260501171541 45 328 3.0 11.0 0.00 0.00 0.00 45 1017.6
20260501170041 45 16 5.0 9.0 0.00 0.00 0.00 46 1017.7
20260501164608 45 5 7.0 11.0 0.00 0.00 0.00 47 1017.7
20260501163041 45 346 8.0 12.0 0.00 0.00 0.00 48 1017.7
20260501161548 44 346 6.0 12.0 0.00 0.00 0.00 48 1017.7
20260501160043 44 10 7.0 11.0 0.00 0.00 0.00 49 1017.8
20260501154547 44 11 6.0 12.0 0.00 0.00 0.00 48 1017.9
20260501153049 43 20 5.0 12.0 0.00 0.00 0.00 50 1017.8